| time (UTC) | temp C | wind direction | speed KPH | gust KPH | rain 1hr cm | rain 24hr cm | rain mn cm | humidity % | barometer mb |
| 20260507145025 | 14 | 264 | 20.9 | 33.8 | 0.00 | 0.00 | 0.00 | 49 | 1012.7 |
| 20260507144542 | 13 | 275 | 19.3 | 29.0 | 0.00 | 0.00 | 0.00 | 53 | 1012.7 |
| 20260507144026 | 13 | 270 | 19.3 | 29.0 | 0.00 | 0.00 | 0.00 | 53 | 1012.6 |
| 20260507143525 | 12 | 279 | 20.9 | 30.6 | 0.00 | 0.00 | 0.00 | 54 | 1012.6 |
| 20260507143043 | 12 | 265 | 20.9 | 30.6 | 0.00 | 0.00 | 0.00 | 54 | 1012.5 |
| 20260507142526 | 12 | 257 | 22.5 | 29.0 | 0.00 | 0.00 | 0.00 | 55 | 1012.5 |
| 20260507142025 | 11 | 265 | 19.3 | 29.0 | 0.00 | 0.00 | 0.00 | 57 | 1012.4 |
| 20260507141539 | 11 | 280 | 22.5 | 29.0 | 0.00 | 0.00 | 0.00 | 57 | 1012.4 |
| 20260507141025 | 11 | 276 | 20.9 | 27.4 | 0.00 | 0.00 | 0.00 | 58 | 1012.4 |
| 20260507140525 | 11 | 271 | 17.7 | 25.7 | 0.00 | 0.00 | 0.00 | 59 | 1012.2 |
| 20260507140053 | 10 | 267 | 17.7 | 25.7 | 0.00 | 0.00 | 0.00 | 59 | 1012.3 |
| 20260507135525 | 10 | 279 | 17.7 | 24.1 | 0.00 | 0.00 | 0.00 | 60 | 1012.3 |
| 20260507135026 | 10 | 279 | 19.3 | 24.1 | 0.00 | 0.00 | 0.00 | 60 | 1012.4 |
| 20260507134535 | 10 | 298 | 16.1 | 24.1 | 0.00 | 0.00 | 0.00 | 62 | 1012.3 |
| 20260507134027 | 9 | 283 | 16.1 | 24.1 | 0.00 | 0.00 | 0.00 | 63 | 1012.3 |
| 20260507133527 | 8 | 271 | 16.1 | 24.1 | 0.00 | 0.00 | 0.00 | 63 | 1012.2 |
| 20260507133043 | 8 | 284 | 17.7 | 24.1 | 0.00 | 0.00 | 0.00 | 63 | 1012.1 |
| 20260507132525 | 8 | 262 | 17.7 | 25.7 | 0.00 | 0.00 | 0.00 | 64 | 1012.2 |
| 20260507132025 | 8 | 262 | 19.3 | 25.7 | 0.00 | 0.00 | 0.00 | 65 | 1012.1 |
| 20260507131546 | 7 | 232 | 17.7 | 24.1 | 0.00 | 0.00 | 0.00 | 65 | 1012.1 |
| 20260507131026 | 7 | 238 | 17.7 | 27.4 | 0.00 | 0.00 | 0.00 | 66 | 1012.1 |
| 20260507130523 | 7 | 225 | 17.7 | 27.4 | 0.00 | 0.00 | 0.00 | 66 | 1011.9 |
| 20260507130042 | 7 | 255 | 19.3 | 27.4 | 0.00 | 0.00 | 0.00 | 66 | 1011.9 |
| 20260507125525 | 7 | 253 | 19.3 | 27.4 | 0.00 | 0.00 | 0.00 | 67 | 1011.9 |
| 20260507125024 | 6 | 258 | 19.3 | 29.0 | 0.00 | 0.00 | 0.00 | 67 | 1011.9 |
| 20260507124540 | 6 | 231 | 19.3 | 29.0 | 0.00 | 0.00 | 0.00 | 68 | 1011.9 |
| 20260507124028 | 6 | 252 | 19.3 | 25.7 | 0.00 | 0.00 | 0.00 | 69 | 1011.8 |
| 20260507123525 | 5 | 260 | 16.1 | 24.1 | 0.00 | 0.00 | 0.00 | 70 | 1011.8 |
| 20260507123039 | 5 | 246 | 16.1 | 24.1 | 0.00 | 0.00 | 0.00 | 70 | 1011.8 |
| 20260507122525 | 5 | 254 | 16.1 | 24.1 | 0.00 | 0.00 | 0.00 | 70 | 1011.7 |
| 20260507122027 | 4 | 264 | 16.1 | 24.1 | 0.00 | 0.00 | 0.00 | 71 | 1011.7 |
| 20260507121545 | 4 | 242 | 17.7 | 24.1 | 0.00 | 0.00 | 0.00 | 71 | 1011.7 |
| 20260507121026 | 3 | 312 | 16.1 | 22.5 | 0.00 | 0.00 | 0.00 | 71 | 1011.6 |
| 20260507120527 | 3 | 243 | 16.1 | 24.1 | 0.00 | 0.00 | 0.00 | 71 | 1011.7 |
| 20260507120043 | 3 | 247 | 16.1 | 24.1 | 0.00 | 0.00 | 0.00 | 71 | 1011.7 |
| 20260507115527 | 3 | 257 | 16.1 | 27.4 | 0.00 | 0.00 | 0.00 | 71 | 1011.7 |
| 20260507115028 | 3 | 254 | 17.7 | 27.4 | 0.00 | 0.00 | 0.00 | 71 | 1011.6 |
| 20260507114542 | 3 | 254 | 17.7 | 25.7 | 0.00 | 0.00 | 0.00 | 71 | 1011.5 |
| 20260507114026 | 3 | 237 | 17.7 | 24.1 | 0.00 | 0.00 | 0.00 | 71 | 1011.5 |
| 20260507113525 | 3 | 252 | 17.7 | 24.1 | 0.00 | 0.00 | 0.00 | 71 | 1011.4 |
| 20260507113042 | 3 | 253 | 17.7 | 24.1 | 0.00 | 0.00 | 0.00 | 71 | 1011.5 |
| 20260507112526 | 3 | 241 | 17.7 | 24.1 | 0.00 | 0.00 | 0.00 | 71 | 1011.5 |
| 20260507112028 | 3 | 245 | 17.7 | 24.1 | 0.00 | 0.00 | 0.00 | 71 | 1011.4 |
| 20260507111545 | 3 | 250 | 17.7 | 27.4 | 0.00 | 0.00 | 0.00 | 71 | 1011.3 |
| 20260507111025 | 3 | 231 | 17.7 | 27.4 | 0.00 | 0.00 | 0.00 | 71 | 1011.5 |
| 20260507110525 | 3 | 236 | 17.7 | 27.4 | 0.00 | 0.00 | 0.00 | 70 | 1011.5 |
| 20260507110039 | 3 | 257 | 19.3 | 25.7 | 0.00 | 0.00 | 0.00 | 70 | 1011.5 |
| 20260507105525 | 3 | 232 | 16.1 | 25.7 | 0.00 | 0.00 | 0.00 | 70 | 1011.4 |
| 20260507105025 | 3 | 246 | 16.1 | 25.7 | 0.00 | 0.00 | 0.00 | 70 | 1011.3 |
| 20260507104536 | 3 | 249 | 17.7 | 27.4 | 0.00 | 0.00 | 0.00 | 70 | 1011.3 |
| 20260507104025 | 3 | 244 | 17.7 | 27.4 | 0.00 | 0.00 | 0.00 | 70 | 1011.3 |
| 20260507103525 | 3 | 254 | 19.3 | 25.7 | 0.00 | 0.00 | 0.00 | 70 | 1011.4 |
| 20260507103043 | 3 | 247 | 17.7 | 24.1 | 0.00 | 0.00 | 0.00 | 70 | 1011.4 |
| 20260507102525 | 3 | 241 | 14.5 | 22.5 | 0.00 | 0.00 | 0.00 | 71 | 1011.5 |
| 20260507102026 | 3 | 241 | 16.1 | 25.7 | 0.00 | 0.00 | 0.00 | 71 | 1011.4 |
| 20260507101558 | 3 | 238 | 16.1 | 25.7 | 0.00 | 0.00 | 0.00 | 72 | 1011.6 |
| 20260507101025 | 3 | 261 | 14.5 | 20.9 | 0.00 | 0.00 | 0.00 | 72 | 1011.6 |
| 20260507100524 | 2 | 239 | 12.9 | 20.9 | 0.00 | 0.00 | 0.00 | 72 | 1011.6 |
| 20260507100041 | 2 | 238 | 12.9 | 20.9 | 0.00 | 0.00 | 0.00 | 73 | 1011.5 |
| 20260507095525 | 2 | 247 | 14.5 | 20.9 | 0.00 | 0.00 | 0.00 | 74 | 1011.5 |
| 20260507095024 | 2 | 235 | 12.9 | 19.3 | 0.00 | 0.00 | 0.00 | 74 | 1011.4 |
| 20260507094546 | 2 | 232 | 9.7 | 17.7 | 0.00 | 0.00 | 0.00 | 73 | 1011.5 |
| 20260507094025 | 2 | 227 | 11.3 | 22.5 | 0.00 | 0.00 | 0.00 | 73 | 1011.6 |
| 20260507093525 | 2 | 232 | 11.3 | 22.5 | 0.00 | 0.00 | 0.00 | 73 | 1011.6 |
| 20260507093038 | 2 | 238 | 14.5 | 22.5 | 0.00 | 0.00 | 0.00 | 73 | 1011.8 |
| 20260507092532 | 2 | 226 | 14.5 | 24.1 | 0.00 | 0.00 | 0.00 | 73 | 1011.8 |
| 20260507092024 | 2 | 225 | 16.1 | 24.1 | 0.00 | 0.00 | 0.00 | 73 | 1011.7 |
| 20260507091553 | 2 | 231 | 16.1 | 25.7 | 0.00 | 0.00 | 0.00 | 73 | 1011.7 |
| 20260507091025 | 2 | 226 | 16.1 | 25.7 | 0.00 | 0.00 | 0.00 | 73 | 1011.7 |
| 20260507090525 | 2 | 238 | 17.7 | 25.7 | 0.00 | 0.00 | 0.00 | 73 | 1011.8 |
| 20260507090105 | 2 | 231 | 16.1 | 25.7 | 0.00 | 0.00 | 0.00 | 73 | 1011.9 |
| 20260507085524 | 2 | 229 | 16.1 | 25.7 | 0.00 | 0.00 | 0.00 | 74 | 1011.8 |
| 20260507085026 | 2 | 241 | 17.7 | 25.7 | 0.00 | 0.00 | 0.00 | 74 | 1011.8 |
| 20260507084541 | 2 | 242 | 17.7 | 25.7 | 0.00 | 0.00 | 0.00 | 75 | 1011.9 |
| 20260507084025 | 2 | 235 | 16.1 | 24.1 | 0.00 | 0.00 | 0.00 | 75 | 1012.0 |
| 20260507083525 | 2 | 240 | 16.1 | 22.5 | 0.00 | 0.00 | 0.00 | 75 | 1012.1 |
| 20260507083041 | 2 | 245 | 16.1 | 22.5 | 0.00 | 0.00 | 0.00 | 75 | 1012.2 |
| 20260507082525 | 2 | 232 | 16.1 | 22.5 | 0.00 | 0.00 | 0.00 | 75 | 1012.2 |
| 20260507082025 | 2 | 228 | 16.1 | 29.0 | 0.00 | 0.00 | 0.00 | 75 | 1012.3 |
| 20260507081550 | 2 | 234 | 16.1 | 29.0 | 0.00 | 0.00 | 0.00 | 75 | 1012.4 |
| 20260507081025 | 2 | 233 | 19.3 | 24.1 | 0.00 | 0.00 | 0.00 | 76 | 1012.5 |
| 20260507080525 | 2 | 227 | 16.1 | 24.1 | 0.00 | 0.00 | 0.00 | 76 | 1012.6 |
| 20260507080043 | 2 | 249 | 14.5 | 29.0 | 0.00 | 0.00 | 0.00 | 75 | 1012.8 |
| 20260507075523 | 2 | 241 | 17.7 | 29.0 | 0.00 | 0.03 | 0.00 | 75 | 1012.8 |
| 20260507075025 | 2 | 235 | 19.3 | 27.4 | 0.00 | 0.03 | 0.00 | 75 | 1012.8 |
| 20260507074540 | 2 | 243 | 19.3 | 30.6 | 0.00 | 0.03 | 0.00 | 75 | 1012.8 |
| 20260507074024 | 2 | 237 | 20.9 | 30.6 | 0.00 | 0.03 | 0.00 | 75 | 1012.9 |
| 20260507073525 | 2 | 240 | 20.9 | 35.4 | 0.00 | 0.03 | 0.00 | 75 | 1013.0 |
| 20260507073054 | 2 | 221 | 22.5 | 35.4 | 0.00 | 0.03 | 0.00 | 75 | 1013.0 |
| 20260507072525 | 2 | 239 | 22.5 | 33.8 | 0.00 | 0.03 | 0.00 | 74 | 1013.1 |
| 20260507072024 | 2 | 230 | 22.5 | 33.8 | 0.00 | 0.03 | 0.00 | 74 | 1013.2 |
| 20260507071539 | 2 | 238 | 22.5 | 35.4 | 0.00 | 0.03 | 0.00 | 74 | 1013.2 |
| 20260507071025 | 3 | 236 | 24.1 | 35.4 | 0.00 | 0.03 | 0.00 | 74 | 1013.3 |
| 20260507070524 | 3 | 232 | 24.1 | 30.6 | 0.00 | 0.03 | 0.00 | 74 | 1013.4 |
| 20260507070121 | 3 | 235 | 19.3 | 29.0 | 0.00 | 0.03 | 0.00 | 73 | 1013.4 |
| 20260507065526 | 3 | 235 | 19.3 | 30.6 | 0.00 | 0.03 | 0.00 | 73 | 1013.6 |
| 20260507065022 | 3 | 223 | 19.3 | 33.8 | 0.00 | 0.03 | 0.00 | 73 | 1013.6 |
| 20260507064547 | 3 | 224 | 20.9 | 33.8 | 0.00 | 0.03 | 0.00 | 73 | 1013.7 |
| 20260507064024 | 3 | 222 | 20.9 | 30.6 | 0.00 | 0.03 | 0.00 | 73 | 1013.8 |
| 20260507063523 | 3 | 232 | 20.9 | 30.6 | 0.00 | 0.03 | 0.00 | 73 | 1013.8 |
| 20260507063041 | 3 | 234 | 17.7 | 27.4 | 0.00 | 0.03 | 0.00 | 73 | 1014.0 |
| 20260507062525 | 3 | 227 | 17.7 | 30.6 | 0.00 | 0.03 | 0.00 | 73 | 1013.9 |
| 20260507062025 | 3 | 226 | 19.3 | 32.2 | 0.00 | 0.03 | 0.00 | 73 | 1014.0 |
| 20260507061542 | 3 | 227 | 22.5 | 32.2 | 0.00 | 0.03 | 0.00 | 73 | 1014.1 |
| 20260507061025 | 3 | 232 | 22.5 | 32.2 | 0.00 | 0.03 | 0.00 | 73 | 1014.2 |
| 20260507060525 | 3 | 213 | 22.5 | 30.6 | 0.00 | 0.03 | 0.00 | 74 | 1014.2 |
| 20260507060040 | 3 | 219 | 20.9 | 29.0 | 0.00 | 0.03 | 0.00 | 74 | 1014.2 |
| 20260507055525 | 3 | 220 | 17.7 | 29.0 | 0.00 | 0.03 | 0.03 | 74 | 1014.3 |
| 20260507055029 | 3 | 234 | 19.3 | 29.0 | 0.00 | 0.03 | 0.03 | 74 | 1014.2 |
| 20260507054543 | 3 | 220 | 17.7 | 29.0 | 0.00 | 0.03 | 0.03 | 74 | 1014.2 |
| 20260507054023 | 3 | 227 | 19.3 | 27.4 | 0.00 | 0.03 | 0.03 | 75 | 1014.2 |
| 20260507053526 | 2 | 217 | 16.1 | 27.4 | 0.00 | 0.03 | 0.03 | 75 | 1014.3 |
| 20260507053044 | 2 | 227 | 12.9 | 22.5 | 0.00 | 0.03 | 0.03 | 75 | 1014.4 |
| 20260507052524 | 2 | 216 | 14.5 | 22.5 | 0.00 | 0.03 | 0.03 | 74 | 1014.5 |
| 20260507052024 | 2 | 217 | 12.9 | 19.3 | 0.00 | 0.03 | 0.03 | 74 | 1014.5 |
| 20260507051545 | 2 | 225 | 11.3 | 17.7 | 0.00 | 0.03 | 0.03 | 74 | 1014.5 |
| 20260507051042 | 2 | 217 | 11.3 | 17.7 | 0.00 | 0.03 | 0.03 | 73 | 1014.6 |
| 20260507050525 | 2 | 211 | 11.3 | 16.1 | 0.00 | 0.03 | 0.03 | 72 | 1014.6 |
| 20260507050043 | 2 | 222 | 11.3 | 19.3 | 0.00 | 0.03 | 0.03 | 72 | 1014.6 |
| 20260507045526 | 2 | 225 | 11.3 | 19.3 | 0.00 | 0.03 | 0.03 | 72 | 1014.7 |
| 20260507045025 | 2 | 217 | 12.9 | 17.7 | 0.00 | 0.03 | 0.03 | 71 | 1014.8 |
| 20260507044546 | 2 | 205 | 11.3 | 17.7 | 0.00 | 0.03 | 0.03 | 71 | 1014.9 |
| 20260507044024 | 3 | 207 | 11.3 | 19.3 | 0.00 | 0.03 | 0.03 | 70 | 1014.8 |
| 20260507043525 | 3 | 209 | 11.3 | 19.3 | 0.00 | 0.03 | 0.03 | 70 | 1014.9 |
| 20260507043041 | 3 | 211 | 11.3 | 19.3 | 0.00 | 0.03 | 0.03 | 70 | 1014.9 |
| 20260507042526 | 2 | 212 | 11.3 | 16.1 | 0.00 | 0.03 | 0.03 | 70 | 1015.1 |
| 20260507042025 | 2 | 217 | 9.7 | 16.1 | 0.00 | 0.03 | 0.03 | 70 | 1015.0 |
| 20260507041539 | 2 | 214 | 9.7 | 16.1 | 0.00 | 0.03 | 0.03 | 69 | 1015.1 |
| 20260507041025 | 2 | 212 | 9.7 | 14.5 | 0.00 | 0.03 | 0.03 | 69 | 1015.2 |
| 20260507040525 | 2 | 214 | 9.7 | 14.5 | 0.00 | 0.03 | 0.03 | 68 | 1015.3 |
| 20260507040049 | 2 | 220 | 9.7 | 16.1 | 0.00 | 0.03 | 0.03 | 68 | 1015.3 |
| 20260507035524 | 3 | 213 | 11.3 | 16.1 | 0.00 | 0.03 | 0.03 | 67 | 1015.4 |
| 20260507035025 | 3 | 217 | 11.3 | 16.1 | 0.00 | 0.03 | 0.03 | 67 | 1015.4 |
| 20260507034546 | 3 | 216 | 11.3 | 16.1 | 0.00 | 0.03 | 0.03 | 66 | 1015.4 |
| 20260507034024 | 3 | 209 | 11.3 | 17.7 | 0.00 | 0.03 | 0.03 | 66 | 1015.4 |
| 20260507033524 | 3 | 207 | 9.7 | 17.7 | 0.00 | 0.03 | 0.03 | 65 | 1015.4 |
| 20260507033041 | 3 | 208 | 11.3 | 16.1 | 0.00 | 0.03 | 0.03 | 65 | 1015.4 |
| 20260507032523 | 3 | 221 | 11.3 | 16.1 | 0.00 | 0.03 | 0.03 | 65 | 1015.5 |
| 20260507032024 | 3 | 208 | 11.3 | 16.1 | 0.00 | 0.03 | 0.03 | 64 | 1015.5 |
| 20260507031542 | 3 | 223 | 11.3 | 16.1 | 0.00 | 0.03 | 0.03 | 64 | 1015.5 |
| 20260507031029 | 3 | 214 | 9.7 | 17.7 | 0.00 | 0.03 | 0.03 | 64 | 1015.6 |
| 20260507030525 | 3 | 219 | 11.3 | 17.7 | 0.00 | 0.03 | 0.03 | 64 | 1015.7 |
| 20260507030042 | 3 | 221 | 9.7 | 16.1 | 0.00 | 0.03 | 0.03 | 63 | 1015.7 |
| 20260507025522 | 3 | 220 | 9.7 | 14.5 | 0.00 | 0.03 | 0.03 | 63 | 1015.7 |
| 20260507025025 | 3 | 218 | 8.0 | 12.9 | 0.00 | 0.03 | 0.03 | 62 | 1015.6 |
| 20260507024539 | 4 | 223 | 8.0 | 14.5 | 0.00 | 0.03 | 0.03 | 61 | 1015.6 |
| 20260507024024 | 4 | 217 | 9.7 | 14.5 | 0.00 | 0.03 | 0.03 | 60 | 1015.5 |
| 20260507023527 | 5 | 209 | 8.0 | 14.5 | 0.00 | 0.03 | 0.03 | 59 | 1015.5 |
| 20260507023035 | 5 | 212 | 8.0 | 16.1 | 0.00 | 0.03 | 0.03 | 58 | 1015.5 |
| 20260507022523 | 5 | 198 | 9.7 | 16.1 | 0.00 | 0.03 | 0.03 | 57 | 1015.5 |
| 20260507022026 | 5 | 211 | 11.3 | 19.3 | 0.00 | 0.03 | 0.03 | 56 | 1015.6 |
| 20260507021534 | 6 | 215 | 11.3 | 19.3 | 0.00 | 0.03 | 0.03 | 54 | 1015.5 |
| 20260507021025 | 6 | 222 | 12.9 | 19.3 | 0.00 | 0.03 | 0.03 | 53 | 1015.6 |
| 20260507020526 | 6 | 235 | 12.9 | 19.3 | 0.00 | 0.03 | 0.03 | 53 | 1015.5 |
| 20260507020050 | 6 | 230 | 11.3 | 19.3 | 0.00 | 0.03 | 0.03 | 52 | 1015.5 |
| 20260507015525 | 7 | 228 | 11.3 | 22.5 | 0.00 | 0.05 | 0.03 | 51 | 1015.6 |
| 20260507015023 | 7 | 226 | 14.5 | 22.5 | 0.00 | 0.05 | 0.03 | 50 | 1015.6 |
| 20260507014553 | 7 | 221 | 12.9 | 20.9 | 0.00 | 0.05 | 0.03 | 49 | 1015.6 |
| 20260507014025 | 7 | 223 | 12.9 | 24.1 | 0.00 | 0.05 | 0.03 | 49 | 1015.7 |
| 20260507013526 | 8 | 239 | 16.1 | 27.4 | 0.00 | 0.05 | 0.03 | 48 | 1015.7 |
| 20260507013039 | 8 | 242 | 17.7 | 27.4 | 0.00 | 0.05 | 0.03 | 47 | 1015.6 |
| 20260507012528 | 8 | 231 | 17.7 | 32.2 | 0.00 | 0.05 | 0.03 | 46 | 1015.7 |
| 20260507012027 | 8 | 243 | 19.3 | 32.2 | 0.00 | 0.05 | 0.03 | 45 | 1015.5 |
| 20260507011539 | 9 | 241 | 17.7 | 29.0 | 0.00 | 0.05 | 0.03 | 44 | 1015.5 |
| 20260507011024 | 9 | 228 | 19.3 | 30.6 | 0.00 | 0.05 | 0.03 | 44 | 1015.5 |
| 20260507010525 | 9 | 246 | 20.9 | 30.6 | 0.00 | 0.05 | 0.03 | 44 | 1015.4 |
| 20260507010059 | 10 | 254 | 19.3 | 29.0 | 0.00 | 0.05 | 0.03 | 44 | 1015.4 |
| 20260507005527 | 10 | 242 | 22.5 | 29.0 | 0.00 | 0.18 | 0.03 | 44 | 1015.6 |
| 20260507005027 | 10 | 238 | 17.7 | 29.0 | 0.00 | 0.18 | 0.03 | 43 | 1015.5 |
| 20260507004544 | 10 | 245 | 20.9 | 33.8 | 0.00 | 0.18 | 0.03 | 43 | 1015.4 |
| 20260507004026 | 10 | 279 | 20.9 | 33.8 | 0.00 | 0.18 | 0.03 | 43 | 1015.5 |
| 20260507003526 | 10 | 248 | 19.3 | 30.6 | 0.00 | 0.18 | 0.03 | 43 | 1015.5 |
| 20260507003042 | 10 | 240 | 20.9 | 35.4 | 0.00 | 0.18 | 0.03 | 44 | 1015.4 |
| 20260507002527 | 10 | 225 | 22.5 | 35.4 | 0.00 | 0.18 | 0.03 | 43 | 1015.4 |
| 20260507002026 | 10 | 237 | 22.5 | 30.6 | 0.00 | 0.18 | 0.03 | 44 | 1015.5 |
| 20260507001550 | 10 | 236 | 16.1 | 25.7 | 0.00 | 0.18 | 0.03 | 45 | 1015.5 |
| 20260507001027 | 10 | 237 | 12.9 | 32.2 | 0.00 | 0.18 | 0.03 | 45 | 1015.8 |
| 20260507000526 | 11 | 225 | 19.3 | 32.2 | 0.00 | 0.18 | 0.03 | 44 | 1015.8 |
| 20260507000046 | 11 | 242 | 22.5 | 33.8 | 0.00 | 0.18 | 0.03 | 44 | 1015.7 |
| 20260506235525 | 11 | 254 | 24.1 | 33.8 | 0.00 | 0.18 | 0.03 | 43 | 1015.8 |
| 20260506235023 | 11 | 227 | 24.1 | 33.8 | 0.00 | 0.18 | 0.03 | 44 | 1015.7 |
| 20260506234543 | 10 | 247 | 16.1 | 29.0 | 0.00 | 0.18 | 0.03 | 46 | 1016.0 |
| 20260506234025 | 10 | 242 | 19.3 | 29.0 | 0.00 | 0.18 | 0.03 | 47 | 1016.1 |
| 20260506233525 | 10 | 239 | 16.1 | 30.6 | 0.00 | 0.18 | 0.03 | 46 | 1016.1 |
| 20260506233041 | 10 | 245 | 19.3 | 30.6 | 0.00 | 0.18 | 0.03 | 44 | 1016.1 |
| 20260506232524 | 11 | 243 | 19.3 | 30.6 | 0.00 | 0.18 | 0.03 | 44 | 1015.9 |
| 20260506232024 | 11 | 263 | 22.5 | 30.6 | 0.00 | 0.18 | 0.03 | 43 | 1016.0 |
| 20260506231542 | 11 | 263 | 20.9 | 33.8 | 0.00 | 0.18 | 0.03 | 43 | 1016.0 |
| 20260506231028 | 11 | 258 | 24.1 | 35.4 | 0.00 | 0.18 | 0.03 | 42 | 1016.0 |
| 20260506230523 | 11 | 277 | 27.4 | 35.4 | 0.00 | 0.18 | 0.03 | 42 | 1016.0 |
| 20260506230039 | 11 | 239 | 14.5 | 29.0 | 0.00 | 0.18 | 0.03 | 44 | 1016.0 |
| 20260506225525 | 10 | 231 | 11.3 | 25.7 | 0.00 | 0.18 | 0.03 | 45 | 1016.1 |
| 20260506225028 | 10 | 232 | 14.5 | 27.4 | 0.00 | 0.18 | 0.03 | 45 | 1016.3 |
| 20260506224538 | 10 | 245 | 20.9 | 37.0 | 0.00 | 0.18 | 0.03 | 43 | 1016.3 |
| 20260506224025 | 11 | 259 | 25.7 | 37.0 | 0.00 | 0.18 | 0.03 | 43 | 1016.1 |
| 20260506223524 | 11 | 233 | 12.9 | 24.1 | 0.00 | 0.18 | 0.03 | 43 | 1016.2 |
| 20260506223046 | 10 | 259 | 14.5 | 29.0 | 0.00 | 0.18 | 0.03 | 42 | 1016.4 |
| 20260506222527 | 11 | 210 | 14.5 | 29.0 | 0.00 | 0.18 | 0.03 | 42 | 1016.4 |
| 20260506222023 | 11 | 212 | 17.7 | 29.0 | 0.00 | 0.18 | 0.03 | 42 | 1016.3 |
| 20260506221544 | 11 | 256 | 19.3 | 29.0 | 0.00 | 0.18 | 0.03 | 43 | 1016.4 |
| 20260506221026 | 11 | 223 | 19.3 | 32.2 | 0.00 | 0.18 | 0.03 | 43 | 1016.4 |
| 20260506220524 | 11 | 224 | 19.3 | 32.2 | 0.00 | 0.18 | 0.03 | 43 | 1016.5 |
| 20260506220043 | 11 | 231 | 20.9 | 30.6 | 0.00 | 0.18 | 0.03 | 44 | 1016.7 |
| 20260506215526 | 11 | 231 | 19.3 | 29.0 | 0.00 | 0.23 | 0.03 | 43 | 1016.7 |
| 20260506215025 | 10 | 230 | 11.3 | 25.7 | 0.00 | 0.23 | 0.03 | 44 | 1016.9 |
| 20260506214540 | 10 | 232 | 17.7 | 29.0 | 0.00 | 0.23 | 0.03 | 45 | 1017.0 |
| 20260506214026 | 10 | 248 | 17.7 | 29.0 | 0.00 | 0.23 | 0.03 | 44 | 1017.0 |
| 20260506213523 | 10 | 263 | 17.7 | 29.0 | 0.00 | 0.23 | 0.03 | 43 | 1017.1 |
| 20260506213039 | 10 | 279 | 6.4 | 19.3 | 0.00 | 0.23 | 0.03 | 46 | 1017.2 |
| 20260506212527 | 9 | 269 | 4.8 | 25.7 | 0.00 | 0.23 | 0.03 | 46 | 1017.3 |
| 20260506212027 | 9 | 289 | 12.9 | 25.7 | 0.00 | 0.23 | 0.03 | 48 | 1017.3 |
| 20260506211546 | 9 | 306 | 16.1 | 22.5 | 0.00 | 0.23 | 0.03 | 47 | 1017.4 |
| 20260506211026 | 9 | 288 | 14.5 | 22.5 | 0.00 | 0.23 | 0.03 | 47 | 1017.5 |
| 20260506210529 | 9 | 309 | 11.3 | 27.4 | 0.00 | 0.23 | 0.03 | 47 | 1017.6 |
| 20260506210049 | 9 | 271 | 14.5 | 27.4 | 0.00 | 0.23 | 0.03 | 47 | 1017.6 |
| 20260506205526 | 9 | 273 | 20.9 | 27.4 | 0.00 | 0.25 | 0.03 | 46 | 1017.7 |
| 20260506205026 | 10 | 231 | 14.5 | 24.1 | 0.00 | 0.25 | 0.03 | 47 | 1017.8 |
| 20260506204542 | 10 | 220 | 16.1 | 25.7 | 0.00 | 0.25 | 0.03 | 45 | 1017.8 |
| 20260506204024 | 10 | 220 | 14.5 | 25.7 | 0.00 | 0.25 | 0.03 | 48 | 1018.0 |
| 20260506203524 | 10 | 240 | 14.5 | 24.1 | 0.00 | 0.25 | 0.03 | 47 | 1018.1 |
| 20260506203048 | 8 | 274 | 3.2 | 22.5 | 0.00 | 0.25 | 0.03 | 45 | 1018.1 |
| 20260506202527 | 9 | 207 | 8.0 | 29.0 | 0.00 | 0.25 | 0.03 | 45 | 1018.2 |
| 20260506202024 | 9 | 240 | 16.1 | 29.0 | 0.00 | 0.25 | 0.03 | 46 | 1018.4 |
| 20260506201555 | 8 | 217 | 12.9 | 20.9 | 0.00 | 0.25 | 0.03 | 46 | 1018.3 |
| 20260506201023 | 8 | 297 | 11.3 | 20.9 | 0.00 | 0.25 | 0.03 | 45 | 1018.4 |
| 20260506200523 | 8 | 273 | 3.2 | 24.1 | 0.00 | 0.25 | 0.03 | 46 | 1018.5 |
| 20260506200038 | 9 | 270 | 14.5 | 24.1 | 0.00 | 0.25 | 0.03 | 45 | 1018.5 |
| 20260506195524 | 8 | 269 | 16.1 | 24.1 | 0.00 | 0.25 | 0.03 | 48 | 1018.5 |
| 20260506195024 | 8 | 284 | 14.5 | 24.1 | 0.00 | 0.25 | 0.03 | 46 | 1018.5 |
| 20260506194549 | 8 | 297 | 12.9 | 24.1 | 0.00 | 0.25 | 0.03 | 46 | 1018.7 |
| 20260506194023 | 9 | 286 | 14.5 | 25.7 | 0.00 | 0.25 | 0.03 | 45 | 1018.6 |
| 20260506193525 | 8 | 304 | 9.7 | 25.7 | 0.00 | 0.25 | 0.03 | 47 | 1018.6 |
| 20260506193045 | 8 | 319 | 14.5 | 25.7 | 0.00 | 0.25 | 0.03 | 47 | 1018.7 |
| 20260506192527 | 9 | 309 | 14.5 | 20.9 | 0.00 | 0.25 | 0.03 | 47 | 1018.7 |
| 20260506192024 | 8 | 303 | 11.3 | 19.3 | 0.00 | 0.25 | 0.03 | 46 | 1018.8 |
| 20260506191543 | 8 | 303 | 12.9 | 20.9 | 0.00 | 0.25 | 0.03 | 48 | 1018.8 |
| 20260506191024 | 8 | 327 | 6.4 | 20.9 | 0.00 | 0.25 | 0.03 | 49 | 1018.8 |
| 20260506190527 | 8 | 326 | 14.5 | 20.9 | 0.00 | 0.25 | 0.03 | 48 | 1018.8 |
| 20260506190041 | 8 | 263 | 9.7 | 22.5 | 0.00 | 0.25 | 0.03 | 47 | 1018.9 |
| 20260506185524 | 8 | 241 | 8.0 | 25.7 | 0.00 | 0.25 | 0.03 | 47 | 1019.0 |
| 20260506185024 | 8 | 292 | 12.9 | 25.7 | 0.00 | 0.25 | 0.03 | 51 | 1019.1 |
| 20260506184548 | 7 | 56 | 4.8 | 20.9 | 0.00 | 0.25 | 0.03 | 49 | 1019.0 |
| 20260506184024 | 7 | 156 | 6.4 | 20.9 | 0.00 | 0.25 | 0.03 | 50 | 1019.1 |
| 20260506183524 | 7 | 250 | 8.0 | 17.7 | 0.00 | 0.25 | 0.03 | 52 | 1019.1 |
| 20260506183046 | 7 | 5 | 4.8 | 17.7 | 0.00 | 0.25 | 0.03 | 52 | 1019.3 |
| 20260506182526 | 7 | 296 | 12.9 | 17.7 | 0.00 | 0.25 | 0.03 | 54 | 1019.4 |
| 20260506182028 | 7 | 310 | 8.0 | 17.7 | 0.00 | 0.25 | 0.03 | 52 | 1019.6 |
| 20260506181542 | 7 | 355 | 3.2 | 22.5 | 0.00 | 0.25 | 0.03 | 51 | 1019.5 |
| 20260506181030 | 7 | 316 | 11.3 | 22.5 | 0.00 | 0.25 | 0.03 | 52 | 1019.6 |
| 20260506180526 | 7 | 259 | 11.3 | 17.7 | 0.00 | 0.25 | 0.03 | 52 | 1019.6 |
| 20260506180043 | 7 | 325 | 4.8 | 17.7 | 0.00 | 0.25 | 0.03 | 55 | 1019.6 |
| 20260506175528 | 6 | 298 | 4.8 | 19.3 | 0.00 | 0.25 | 0.03 | 56 | 1019.7 |
| 20260506175028 | 6 | 300 | 9.7 | 19.3 | 0.00 | 0.25 | 0.03 | 53 | 1019.7 |
| 20260506174541 | 7 | 309 | 12.9 | 24.1 | 0.00 | 0.25 | 0.03 | 54 | 1019.7 |
| 20260506174028 | 7 | 351 | 6.4 | 24.1 | 0.00 | 0.25 | 0.03 | 55 | 1019.7 |
| 20260506173526 | 6 | 0 | 1.6 | 17.7 | 0.00 | 0.25 | 0.03 | 54 | 1019.7 |
| 20260506173051 | 7 | 264 | 4.8 | 24.1 | 0.00 | 0.25 | 0.03 | 53 | 1019.8 |
| 20260506172524 | 7 | 43 | 11.3 | 24.1 | 0.00 | 0.25 | 0.03 | 56 | 1019.8 |
| 20260506172029 | 6 | 342 | 11.3 | 24.1 | 0.00 | 0.25 | 0.03 | 56 | 1019.8 |
| 20260506171549 | 6 | 313 | 8.0 | 19.3 | 0.00 | 0.25 | 0.03 | 56 | 1019.9 |
| 20260506171024 | 6 | 302 | 9.7 | 20.9 | 0.00 | 0.25 | 0.03 | 57 | 1019.9 |
| 20260506170527 | 6 | 16 | 9.7 | 20.9 | 0.00 | 0.25 | 0.03 | 54 | 1020.0 |
| 20260506170045 | 6 | 294 | 12.9 | 19.3 | 0.00 | 0.25 | 0.03 | 56 | 1020.0 |
| 20260506165528 | 6 | 267 | 11.3 | 19.3 | 0.00 | 0.25 | 0.03 | 57 | 1020.0 |
| 20260506165027 | 6 | 329 | 9.7 | 19.3 | 0.00 | 0.25 | 0.03 | 56 | 1020.0 |
| 20260506164543 | 6 | 15 | 11.3 | 20.9 | 0.00 | 0.25 | 0.03 | 57 | 1019.9 |
| 20260506164024 | 6 | 288 | 12.9 | 20.9 | 0.00 | 0.25 | 0.03 | 57 | 1019.9 |
| 20260506163527 | 5 | 327 | 9.7 | 20.9 | 0.00 | 0.25 | 0.03 | 57 | 1020.0 |
| 20260506163058 | 5 | 342 | 12.9 | 20.9 | 0.00 | 0.25 | 0.03 | 57 | 1019.9 |
| 20260506162527 | 5 | 292 | 12.9 | 20.9 | 0.00 | 0.25 | 0.03 | 55 | 1020.0 |
| 20260506162026 | 5 | 22 | 3.2 | 22.5 | 0.00 | 0.25 | 0.03 | 60 | 1020.0 |
| 20260506161544 | 5 | 333 | 12.9 | 22.5 | 0.00 | 0.25 | 0.03 | 62 | 1020.0 |
| 20260506161027 | 5 | 296 | 16.1 | 22.5 | 0.00 | 0.25 | 0.03 | 62 | 1019.9 |
| 20260506160527 | 5 | 328 | 8.0 | 19.3 | 0.00 | 0.25 | 0.03 | 63 | 1019.7 |
| 20260506160042 | 5 | 355 | 12.9 | 24.1 | 0.00 | 0.25 | 0.03 | 65 | 1019.8 |
| 20260506155524 | 5 | 5 | 11.3 | 24.1 | 0.00 | 0.30 | 0.03 | 63 | 1019.8 |
| 20260506155024 | 5 | 342 | 14.5 | 24.1 | 0.00 | 0.30 | 0.03 | 65 | 1019.7 |
| 20260506154540 | 4 | 14 | 11.3 | 19.3 | 0.00 | 0.30 | 0.03 | 66 | 1019.8 |
| 20260506154026 | 4 | 348 | 8.0 | 16.1 | 0.00 | 0.30 | 0.03 | 67 | 1019.9 |
| 20260506153525 | 4 | 325 | 8.0 | 16.1 | 0.00 | 0.30 | 0.03 | 69 | 1019.8 |
| 20260506153042 | 4 | 342 | 9.7 | 16.1 | 0.00 | 0.30 | 0.03 | 68 | 1019.8 |
| 20260506152528 | 4 | 10 | 8.0 | 16.1 | 0.00 | 0.30 | 0.03 | 71 | 1019.8 |
| 20260506152027 | 3 | 355 | 8.0 | 16.1 | 0.00 | 0.30 | 0.03 | 71 | 1019.9 |
| 20260506151544 | 3 | 339 | 6.4 | 16.1 | 0.00 | 0.30 | 0.03 | 72 | 1019.9 |
| 20260506151025 | 3 | 341 | 9.7 | 17.7 | 0.00 | 0.30 | 0.03 | 73 | 1019.8 |
| 20260506150526 | 3 | 360 | 8.0 | 17.7 | 0.00 | 0.30 | 0.03 | 74 | 1019.9 |
| 20260506150041 | 3 | 348 | 9.7 | 19.3 | 0.00 | 0.30 | 0.03 | 76 | 1019.8 |
| 20260506145526 | 3 | 10 | 12.9 | 19.3 | 0.00 | 0.30 | 0.03 | 76 | 1019.8 |